Voltar ao catálogo

STARLINK-31848

AtivoComunicaçõesVLEO
NORAD 59784·PAYLOAD·🇺🇸 United States

Lançado May 18, 2024 de Cape Canaveral Space Force Station

Loading…

Próximas Passagens (próximas 24 horas)

TLE

AtualizadoSource: CelesTrak SupGP

Época: Sep 15, 2026, 02:19 UTC

1 59784C 24093C   26258.09701389 -.00040683  00000+0 -14737-2 0  2585
2 59784  42.9995 215.7456 0001017 267.1962  71.6558 15.27596065    14

Acompanhe STARLINK-31848 em tempo real com AllMySat

Download on the App Store